map of IOS home
IOS - Airport
Location
City:  Ilhéus, Bahia, Brazil
Near (Alt.):Bahia
Name:Jorge Amado Airport
ICAO:SBIL
IATA:IOS

Details
Type:Airport (Aerodrome, Airfield)
Use:Public/Civil
Latitude:14°48'57"S (-14.815963)
Longitude:39°02'00"W (-39.033196)
Datum:WGS 1984
Elevation:15 ft (5 m)
Variation:23.66°W (WMM2015 magnetic declination)
-0.04° annual change
Runways:1
Longest:5174 × 148 ft (1577 × 45 m), paved

Time
Time Zone:UTC-3
Local Time:

Weather
METAR:SBIL 280700Z 27002KT 9999 SCT020 23/23 Q1014
TAF:SBIL 280200Z 2806/2818 26004KT 8000 SCT020 TN23/2807Z TX29/2816Z
TEMPO 2809/2811 6000 RA SCT008 BKN017
BECMG 2812/2814 10009KT
RMK PEI

Related Locations
Nearby:
Farthest:GUM: 12174 mi / 19592 km
Agana [Guam Intl (Antonio B. Won Pat Intl)], GU, US

Find:

   beyond  
but within

Other Information
Maps:
NOTAMs:
Links:
Sources:

  
flag of Brazil
flag of Bahia
  

Sectional Chart

Flight Planning
at skyvector.com

Satellite Image

Google Maps Satellite view

 

Copyright © 2004-2017 Karl L. Swartz. All rights reserved.
The Great Circle Mapper name and logo are trademarks of the Great Circle Mapper.
All other trademarks mentioned herein belong to their respective owners.
Please see credits for attibutions and further copyright information.

  Follow gcmap on Facebook Follow gcmap on Twitter Follow gcmap on Google+ GCmap on LinkedIn

hCard Microformat

Geo Microformat